[[{"header":{"parameterUnit":"m.s-1","parameterCategory":1,"la1":30.2991,"la2":30.254,"lo1":-89.0895,"lo2":-89.0444,"dy":0.0017,"dx":0.0017,"nx":28,"ny":28,"refTime":"2024-03-12T09:00:00:Z","depth":0,"parameterNumber":2,"parameterNumberName":"U-component_of_WINDS"},"data":[0,0,0,0,0,0,0,0,0,0,0,0,0,0,0,0,0,0,0,0,0,0,0,0,0,0,0,0,0,0,0,0,0,0,0,0,0,0,0,0,0,0,0,0,0,0,0,0,0,0,0,0,0,0,0,0,0,0,-3.8204,-3.8204,0,-3.8251,-3.8251,-3.8252,-3.8186,-3.8184,-3.8181,-3.8179,-3.8228,-3.8232,-3.8235,0,0,0,0,0,0,0,0,0,0,0,0,0,-3.8058,-3.8061,-3.8203,-3.8204,-3.8205,-3.8251,-3.8251,-3.8252,-3.8186,-3.8184,-3.8181,-3.8178,-3.8227,-3.8231,-3.8235,0,0,0,0,0,0,0,0,0,0,0,0,0,-3.8115,-3.8062,-3.8203,-3.8177,-3.8176,-3.825,-3.8251,-3.8252,-3.8187,-3.8183,-3.818,-3.8177,-3.8226,-3.8231,-3.8236,-3.8339,0,0,-3.8252,-3.8254,0,0,0,0,0,0,0,0,-3.8112,-3.812,-3.8181,-3.8179,-3.8177,-3.8209,-3.8218,-3.8281,-3.8188,-3.8183,-3.8179,-3.8175,-3.8225,-3.823,-3.8246,-3.8341,-3.8343,-3.8253,-3.8256,-3.8258,-3.8259,0,0,0,0,0,0,0,-3.8108,-3.8118,-3.8222,-3.8182,-3.818,-3.8164,-3.8168,-3.823,-3.8223,-3.8183,-3.8178,-3.8185,-3.8223,-3.8242,-3.8247,-3.8344,-3.8252,-3.8257,-3.826,-3.8262,-3.8525,-3.8529,0,0,0,0,0,0,-3.8107,-3.8115,-3.8221,-3.8224,-3.8135,-3.8169,-3.8174,-3.8202,-3.8222,-3.8222,-3.8188,-3.8181,-3.8234,-3.8241,-3.8249,-3.837,-3.8258,-3.8263,-3.8266,-3.8522,-3.8526,-3.853,0,0,0,0,0,0,-3.8104,-3.8117,-3.8219,-3.8168,-3.818,-3.8176,-3.8208,-3.8205,-3.8223,-3.8226,-3.8224,-3.8208,-3.8232,-3.8241,-3.8317,-3.8371,-3.8265,-3.827,-3.8517,-3.8523,-3.8528,-3.8613,0,0,0,0,0,0,-3.81,-3.8116,-3.8155,-3.8169,-3.8183,-3.8286,-3.8211,-3.8209,-3.8232,-3.8225,-3.8244,-3.8244,-3.823,-3.8309,-3.8322,-3.8376,-3.8274,-3.8512,-3.852,-3.8526,-3.8606,-3.8621,-3.8635,0,0,0,0,0,-3.8095,-3.8177,-3.8157,-3.817,-3.8231,-3.8289,-3.8297,-3.8279,-3.8237,-3.8276,-3.8278,-3.8243,-3.8363,-3.8318,-3.8331,-3.8388,-3.8509,-3.8518,-3.8526,-3.8599,-3.8618,-3.8634,0,0,0,0,0,0,-3.8169,-3.8178,-3.8156,-3.8245,-3.8267,-3.8278,-3.8326,-3.83,-3.8334,-3.8325,-3.8302,-3.8307,-3.8388,-3.8395,-3.8345,-3.8488,-3.8429,-3.8441,-3.848,-3.8498,-3.8512,-3.8508,-3.8278,0,0,0,0,0,-3.8195,-3.8242,-3.8248,-3.8326,-3.8338,-3.8331,-3.8355,-3.834,-3.8361,-3.837,-3.8377,-3.84,-3.8442,-3.8471,-3.851,-3.8607,-3.861,-3.8653,-3.8667,-3.8679,-3.8689,-3.8741,-3.876,-3.8559,-3.8559,-3.8558,0,0,-3.8251,-3.8262,-3.8292,-3.8341,-3.8356,-3.8404,-3.8339,-3.8393,-3.8429,-3.8378,-3.845,-3.8456,-3.848,-3.8566,-3.8605,-3.8575,-3.8746,-3.869,-3.8699,-3.8703,-3.8752,-3.8771,-3.8788,-3.8565,-3.8564,-3.8563,0,0,-3.8376,-3.839,-3.8456,-3.8472,-3.8496,-3.8491,-3.8507,-3.8522,-3.8524,-3.8596,-3.8559,-3.8602,-3.8676,-3.8694,-3.8713,-3.8847,-3.8817,-3.8861,-3.8936,-3.8987,-3.9003,-3.9017,-3.9064,-3.9081,-3.8871,-3.8872,-3.8872,0,-3.8442,-3.8514,-3.8493,-3.855,-3.8573,-3.853,-3.8597,-3.8614,-3.8649,-3.8666,-3.8633,-3.8725,-3.8738,-3.8828,-3.8861,-3.8878,-3.8896,-3.8858,-3.9002,-3.9016,-3.9028,-3.9073,-3.9091,-3.8877,-3.8876,-3.8876,-3.8875,0,-3.8593,-3.8644,-3.8695,-3.873,-3.8758,-3.882,-3.8809,-3.8841,-3.8823,-3.8822,-3.8896,-3.891,-3.8951,-3.8972,-3.8956,-3.9061,-3.9041,-3.9006,-3.8945,-3.9053,-3.9095,-3.9112,-3.8884,-3.8882,-3.8881,-3.8879,0,0,-3.8765,-3.8789,-3.8808,-3.8823,-3.8847,-3.8885,-3.8946,-3.8986,-3.9013,-3.904,-3.909,-3.9154,-3.9121,-3.9143,-3.9128,-3.9173,-3.9278,-3.9132,-3.9132,-3.9158,-3.9394,-3.942,-3.944,-3.9259,-3.9262,-3.9264,-3.9392,0,-3.889,-3.8993,-3.8978,-3.9078,-3.9124,-3.9085,-3.9137,-3.9158,-3.9158,-3.9198,-3.9199,-3.9245,-3.9198,-3.9211,-3.9254,-3.9256,-3.9325,-3.9247,-3.9305,-3.9307,-3.9299,-3.9462,-3.949,-3.9609,-3.9408,-3.9411,-3.9413,0,-3.9049,-3.9081,-3.9186,-3.9202,-3.9221,-3.9268,-3.9304,-3.9343,-3.9366,-3.9363,-3.9388,-3.9366,-3.9426,-3.9366,-3.945,-3.9397,-3.942,-3.9425,-3.9429,-3.9433,-3.9365,-3.9469,-3.9647,-3.9664,-3.9439,-3.9437,-3.9435,0,-3.9163,-3.9232,-3.9304,-3.9318,-3.934,-3.9374,-3.9384,-3.9403,-3.9429,-3.9461,-3.9477,-3.9516,-3.9538,-3.9569,-3.9557,-3.9515,-3.9643,-3.9582,-3.9642,-3.9643,-3.967,-3.9668,-3.9853,-3.9687,-3.9687,-3.9687,-3.9686,0,-3.9303,-3.9368,-3.9355,-3.9399,-3.9472,-3.9453,-3.9526,-3.9532,-3.9549,-3.9594,-3.9563,-3.9605,-3.9589,-3.9631,-3.9623,-3.9693,-3.9703,-3.9703,-3.9699,-3.9705,-3.9705,-3.9718,-3.9709,-3.9691,-3.969,-3.9689,-3.9689,0,-3.9441,-3.9435,-3.9511,-3.9525,-3.953,-3.9583,-3.9595,-3.9637,-3.9635,-3.9692,-3.9705,-3.9703,-3.9751,-3.9743,-3.9797,-3.9791,-3.9878,-3.9866,-3.9871,-3.9867,-3.9928,-3.9922,-4.0126,-4.0152,-3.9971,-3.9973,-3.9974,0,-3.953,-3.958,-3.96,-3.9627,-3.964,-3.9685,-3.9711,-3.9696,-3.9724,-3.9754,-3.9792,-3.9837,-3.9872,-3.9951,-3.9954,-3.9995,-3.9982,-4.0051,-3.9988,-3.9992,-3.9982,-3.9979,-3.9984,-4.0063,-4.0065,-4.0067,-4.0069,0,-3.9689,-3.9684,-3.9722,-3.976,-3.9792,-3.9821,-3.9848,-3.9872,-3.9859,-3.9893,-3.9941,-3.9969,-4.0023,-4.0068,-4.0106,-4.0117,-4.0091,-4.0089,-4.0105,-4.011,-4.011,-4.011,-3.9903,-4.0084,-4.0082,-4.0081,-4.008,-4.008,-3.9805,-3.9847,-3.9867,-3.9911,-3.993,-3.9955,-3.9995,-3.9999,-4.0039,-4.0082,-4.0071,-4.0125,-4.0148,-4.0196,-4.0212,-4.0255,-4.0229,-4.0253,-4.0258,-4.0264,-4.0271,-4.0105,-4.0262,-4.0261,-4.0261,-4.0261,-4.026,0,-3.9961,-3.9972,-4.0013,-4.0051,-4.0086,-4.0059,-4.0086,-4.0117,-4.0166,-4.0189,-4.0224,-4.028,-4.0324,-4.0332,-4.0374,-4.0406,-4.0395,-4.0418,-4.0414,-4.0417,-4.0291,-4.0273,-4.0426,-4.0426,-4.0426,-4.0426,-4.0426,-4.0426,-4.0046,-4.0115,-4.0113,-4.0192,-4.0203,-4.0256,-4.0274,-4.0298,-4.0316,-4.038,-4.0416,-4.0421,-4.0438,-4.0481,-4.052,-4.0521,-4.0538,-4.0565,-4.0561,-4.0443,-4.0426,-4.041,-4.0393,-4.0569,-4.0569,-4.0683,-4.0684,-4.0685]},{"header":{"parameterUnit":"m.s-1","parameterCategory":1,"la1":30.2991,"la2":30.254,"lo1":-89.0895,"lo2":-89.0444,"dy":0.0017,"dx":0.0017,"nx":28,"ny":28,"refTime":"2024-03-12T09:00:00:Z","depth":0,"parameterNumber":3,"parameterNumberName":"V-component_of_WINDS"},"data":[0,0,0,0,0,0,0,0,0,0,0,0,0,0,0,0,0,0,0,0,0,0,0,0,0,0,0,0,0,0,0,0,0,0,0,0,0,0,0,0,0,0,0,0,0,0,0,0,0,0,0,0,0,0,0,0,0,0,0.9065,0.9065,0,0.9047,0.9047,0.9046,0.9011,0.9011,0.901,0.9009,0.8991,0.8992,0.8992,0,0,0,0,0,0,0,0,0,0,0,0,0,0.9073,0.9073,0.9065,0.9065,0.9065,0.9047,0.9046,0.9046,0.9011,0.9011,0.901,0.9009,0.8991,0.8991,0.8992,0,0,0,0,0,0,0,0,0,0,0,0,0,0.9064,0.9073,0.9065,0.9045,0.9043,0.9047,0.9046,0.9046,0.9012,0.9011,0.901,0.9009,0.8991,0.8991,0.8992,0.9014,0,0,0.8992,0.8993,0,0,0,0,0,0,0,0,0.9065,0.9064,0.9048,0.9047,0.9044,0.903,0.9043,0.9035,0.9012,0.9024,0.9009,0.9008,0.9005,0.9004,0.9003,0.9013,0.9012,0.8992,0.8993,0.8993,0.8993,0,0,0,0,0,0,0,0.9065,0.9064,0.9058,0.9048,0.9046,0.9038,0.9036,0.9041,0.902,0.9023,0.902,0.9018,0.9004,0.9003,0.9002,0.9012,0.8992,0.8993,0.8993,0.8993,0.9041,0.9042,0,0,0,0,0,0,0.9069,0.9065,0.9059,0.9057,0.9052,0.9039,0.9036,0.9036,0.902,0.9017,0.9019,0.9017,0.9003,0.9002,0.9002,0.9027,0.8993,0.8993,0.8993,0.904,0.9041,0.9042,0,0,0,0,0,0,0.9069,0.9068,0.9059,0.9061,0.9059,0.904,0.904,0.9036,0.9035,0.9018,0.9014,0.9022,0.9002,0.9001,0.9011,0.9026,0.8993,0.8993,0.9038,0.904,0.9042,0.9078,0,0,0,0,0,0,0.9069,0.9069,0.9076,0.9061,0.9059,0.9068,0.9041,0.9036,0.9035,0.9032,0.9019,0.9016,0.9001,0.9011,0.9012,0.9026,0.8993,0.9037,0.9039,0.9041,0.9075,0.908,0.9085,0,0,0,0,0,0.907,0.9087,0.9076,0.9076,0.9067,0.9069,0.9068,0.9051,0.9037,0.9044,0.9034,0.9016,0.9025,0.9012,0.9013,0.9027,0.9036,0.9038,0.9041,0.9073,0.9079,0.9085,0,0,0,0,0,0,0.9103,0.9084,0.9073,0.9085,0.9079,0.9063,0.9072,0.9058,0.9056,0.9053,0.9032,0.9029,0.9042,0.9036,0.9023,0.9048,0.9028,0.903,0.9052,0.9058,0.9063,0.9064,0.8994,0,0,0,0,0,0.9112,0.9115,0.9098,0.9111,0.9109,0.9091,0.9091,0.9079,0.9072,0.9069,0.9059,0.9054,0.9055,0.9056,0.9056,0.9075,0.9072,0.9085,0.909,0.9094,0.9096,0.9107,0.9112,0.905,0.905,0.905,0,0,0.9131,0.9121,0.9123,0.9118,0.9111,0.9115,0.9089,0.9094,0.9097,0.907,0.9079,0.9072,0.9064,0.9079,0.9085,0.9074,0.9113,0.9097,0.91,0.91,0.911,0.9116,0.9121,0.9052,0.9052,0.9052,0,0,0.9166,0.9158,0.9169,0.9164,0.9155,0.9144,0.9146,0.9133,0.9128,0.9136,0.9116,0.912,0.9123,0.9119,0.9117,0.9154,0.9138,0.9155,0.918,0.9191,0.9195,0.92,0.9213,0.9218,0.9158,0.9158,0.9158,0,0.919,0.9194,0.9176,0.9182,0.9181,0.9157,0.9168,0.9165,0.9157,0.9157,0.9145,0.9149,0.9142,0.9156,0.9165,0.9164,0.9168,0.9155,0.9196,0.92,0.9204,0.9217,0.9222,0.916,0.9159,0.9159,0.9159,0,0.9225,0.9228,0.9238,0.9231,0.9231,0.924,0.9224,0.9226,0.9214,0.9205,0.9215,0.9207,0.9205,0.9208,0.9196,0.9221,0.9214,0.92,0.9178,0.9212,0.9224,0.9229,0.9163,0.9162,0.9161,0.9161,0,0,0.9278,0.9263,0.9267,0.9264,0.9254,0.9257,0.9266,0.9265,0.9267,0.9264,0.9271,0.9275,0.9262,0.926,0.9248,0.9257,0.9288,0.9242,0.9241,0.9251,0.9316,0.9327,0.9333,0.9279,0.9279,0.928,0.9317,0,0.9311,0.9324,0.9309,0.9326,0.933,0.9309,0.9317,0.9312,0.9304,0.9307,0.9299,0.9302,0.9284,0.9283,0.9292,0.9283,0.9301,0.928,0.9286,0.9286,0.9287,0.9339,0.9349,0.9384,0.9321,0.9322,0.9322,0,0.935,0.9349,0.9366,0.9357,0.9358,0.9365,0.9364,0.9367,0.9362,0.9356,0.9355,0.9341,0.935,0.933,0.9343,0.933,0.9331,0.9328,0.9329,0.9328,0.9306,0.9339,0.9395,0.94,0.9329,0.9329,0.9328,0,0.9388,0.939,0.9401,0.94,0.9389,0.9395,0.9391,0.9385,0.9386,0.9386,0.9386,0.9387,0.9387,0.9389,0.9376,0.9363,0.9391,0.937,0.9387,0.9387,0.9392,0.9392,0.9449,0.9395,0.9395,0.9395,0.9394,0,0.9426,0.9437,0.9418,0.9425,0.9438,0.9422,0.9435,0.9429,0.9425,0.943,0.9413,0.9419,0.9402,0.9407,0.9397,0.941,0.941,0.9406,0.9403,0.9407,0.9408,0.9407,0.9404,0.9396,0.9396,0.9395,0.9395,0,0.9469,0.9457,0.9467,0.9457,0.9455,0.9465,0.9457,0.9463,0.9455,0.9463,0.9464,0.9452,0.9457,0.9444,0.9447,0.9441,0.9459,0.9453,0.9461,0.9459,0.9476,0.9475,0.9535,0.9542,0.9483,0.9484,0.9484,0,0.9493,0.9502,0.9493,0.9496,0.9493,0.9497,0.9499,0.9484,0.9486,0.9483,0.949,0.9494,0.9496,0.9505,0.9496,0.9499,0.9493,0.9514,0.9493,0.9497,0.9493,0.9493,0.9494,0.9517,0.9518,0.9519,0.9519,0,0.9538,0.9532,0.9535,0.9536,0.9538,0.9538,0.9537,0.954,0.9525,0.9529,0.9534,0.9535,0.9539,0.9543,0.9545,0.9541,0.9528,0.9526,0.953,0.9534,0.9538,0.9536,0.9472,0.9524,0.9524,0.9523,0.9523,0.9523,0.9573,0.958,0.9575,0.9579,0.9577,0.9577,0.9583,0.9576,0.958,0.9582,0.9574,0.9581,0.9578,0.9578,0.9577,0.9583,0.9574,0.958,0.9581,0.9583,0.9586,0.9538,0.9583,0.9583,0.9583,0.9583,0.9583,0,0.9617,0.9613,0.9617,0.9617,0.962,0.9608,0.9607,0.9611,0.9617,0.9616,0.9618,0.9625,0.963,0.9623,0.9627,0.9633,0.9627,0.9634,0.9633,0.9633,0.9593,0.959,0.9639,0.9639,0.9639,0.9639,0.9639,0.9639,0.964,0.9652,0.9646,0.9657,0.9654,0.9661,0.9661,0.9662,0.9661,0.9669,0.9673,0.9668,0.9665,0.9669,0.9673,0.9671,0.9673,0.9683,0.9679,0.9641,0.9636,0.963,0.9627,0.9683,0.9683,0.9718,0.9718,0.9718]}]]